EST,Max TemperatureF,Mean TemperatureF,Min TemperatureF,Max Dew PointF,MeanDew PointF,Min DewpointF,Max Humidity, Mean Humidity, Min Humidity, Max Sea Level PressureIn, Mean Sea Level PressureIn, Min Sea Level PressureIn, Max VisibilityMiles, Mean VisibilityMiles, Min VisibilityMiles, Max Wind SpeedMPH, Mean Wind SpeedMPH, Max Gust SpeedMPH,PrecipitationIn, CloudCover, Events, WindDirDegrees
2012-11-1,48,40,33,36,31,23,100,75,43,29.91,29.86,29.81,10,10,5,16,8,22,0.00,6,Rain-Snow,267
2012-11-2,51,44,37,36,31,25,75,59,47,30.04,29.93,29.85,10,10,10,13,8,20,0.00,4,,286
2012-11-3,57,44,32,41,32,28,100,67,38,30.14,30.06,30.00,10,10,7,14,3,24,0.02,3,Rain-Thunderstorm,292
2012-11-4,44,40,37,43,40,36,100,97,87,30.07,30.04,29.99,10,7,0,9,3,,0.00,7,Fog,337
2012-11-5,46,39,32,34,32,28,100,79,53,30.10,30.06,30.03,10,10,10,8,2,,0.00,1,,25
2012-11-6,48,40,33,37,33,28,93,76,58,30.02,29.96,29.89,10,10,10,15,3,17,0.00,3,,201
2012-11-7,41,39,37,41,39,36,100,99,87,30.02,29.91,29.85,10,9,4,10,4,17,0.11,6,Rain,296
2012-11-8,50,41,32,37,32,28,100,76,43,30.18,30.13,30.02,10,8,1,10,5,,0.00,0,,295
2012-11-9,60,46,32,34,32,30,93,62,34,30.29,30.24,30.18,10,10,10,7,2,,0.00,0,,208
2012-11-10,68,54,41,39,34,32,70,49,32,30.36,30.31,30.25,10,10,10,9,7,,0.00,0,,196
2012-11-11,68,59,50,46,35,28,63,42,26,30.41,30.33,30.27,10,10,10,18,9,30,0.00,0,,175
2012-11-12,64,50,35,55,47,36,100,78,59,30.35,30.24,30.14,10,9,4,21,14,34,0.28,4,Rain,192
2012-11-13,42,36,30,36,29,27,100,82,53,30.42,30.38,30.35,10,10,10,9,5,,0.00,2,,356
2012-11-14,46,38,30,32,29,27,87,75,53,30.38,30.34,30.27,10,10,10,7,3,,0.00,0,,33
2012-11-15,51,42,32,34,31,28,93,70,47,30.30,30.26,30.23,10,10,10,7,3,,0.00,0,,356
2012-11-16,51,42,32,32,30,28,93,72,41,30.40,30.33,30.27,10,10,10,10,3,,0.00,0,,7
2012-11-17,57,44,32,32,28,21,87,56,36,30.47,30.42,30.39,10,10,10,8,2,,0.00,0,,31
2012-11-18,57,46,35,37,31,19,81,58,44,30.46,30.41,30.36,10,10,10,8,1,,0.00,0,,146
2012-11-19,60,48,35,39,36,32,87,65,42,30.37,30.29,30.20,10,10,10,6,2,,0.00,0,,90
2012-11-20,59,50,42,39,32,28,76,52,36,30.20,30.14,30.09,10,10,10,9,2,,0.00,3,,302
2012-11-21,59,50,42,34,32,30,66,51,36,30.23,30.19,30.12,10,10,10,10,2,,0.00,1,,1
2012-11-22,62,50,39,36,33,30,75,54,32,30.27,30.21,30.15,10,10,10,10,2,,0.00,0,,179
2012-11-23,51,43,35,46,38,30,100,75,66,30.15,30.07,30.00,10,10,2,17,10,24,0.00,4,Rain,249
2012-11-24,35,29,23,30,23,19,93,77,65,30.10,30.07,30.03,10,10,10,13,8,21,0.00,5,,317
2012-11-25,46,34,21,23,21,18,93,62,34,30.08,30.04,29.97,10,10,10,17,6,22,0.00,1,,219
2012-11-26,50,44,37,32,26,21,66,49,40,30.19,30.13,30.07,10,10,10,13,6,,0.00,5,Rain,221
2012-11-27,42,37,32,41,37,32,100,98,76,30.25,30.18,30.10,10,4,0,10,5,16,0.02,8,Fog-Rain,330
2012-11-28,44,38,32,34,28,23,100,78,46,30.37,30.32,30.22,10,10,7,7,2,,0.00,3,,304
2012-11-29,53,40,26,32,27,23,86,65,33,30.39,30.34,30.29,10,10,10,12,2,,0.00,0,,185
2012-11-30,55,46,37,41,36,32,81,69,51,30.35,30.29,30.24,10,10,10,16,9,23,0.00,1,,216